Location: Laverne
(36.7100°N, 99.8930°W)
Time: 17:51:15
(UTC-06:00)

Cosmos 158 Rocket - Pass Details

Date: 19 October 2017
Orbit: 698 x 794 km, 74.0° (Epoch: 24 November)

Event Time Altitude Azimuth Distance (km) Brightness Sun altitude
Rises 06:40:59 0° 340° (NNW) 3,291 7.1 -14.7°
Reaches altitude 10° 06:43:23 10° 338° (NNW) 2,364 6.3 -14.3°
Maximum altitude 06:48:45 74° 255° (WSW) 829 4.0 -13.2°
Drops below altitude 10° 06:54:06 10° 171° (S) 2,347 6.7 -12.1°
Sets 06:56:29 0° 169° (S) 3,265 7.5 -11.6°
